Home > Weather > Red Deer > Past weeks

Flag for Canada Past Weather in Red Deer, Alberta, Canada — Yesterday and Last 2 Weeks

Now
46 °F

Passing clouds.


Feels Like: 44 °F
Forecast: 45 / 67 °F
Wind: 5 mph from Southwest

Location: Red Deer

Current Time: Aug 26, 2016 at 4:32:34 AM

Latest Report: Aug 26, 2016 at 4:00 AM


Visibility: 15 mi

Pressure: 30.17 "Hg (27.18 "Hg at 857m altitude)

Humidity: 93%

Dew Point: 45 °F

Location of Red DeerLocation

Past Weather in Red Deer — Graph

°F

Red Deer Temperature Yesterday

Maximum temperature yesterday: 63 °F (at 12:00 PM)
Minimum temperature yesterday: 48 °F (at 12:00 AM)
Average temperature yesterday: 56 °F

High & Low Weather Summary for the Past Weeks

 TemperatureHumidityPressure
High81 °F (Aug 16, 4:00 PM)100% (Aug 12, 7:00 AM)30.39 "Hg (Aug 12, 7:00 AM)
Low39 °F (Aug 19, 5:00 AM)32% (Aug 20, 6:00 PM)29.47 "Hg (Aug 22, 1:00 AM)
Average59 °F78%30.06 "Hg
* Reported Aug 11 3:00 AM — Aug 26 3:00 AM, Red Deer, Weather by CustomWeather, © 2016

Note: Actual official high and low records may vary slightly from our data, if they occured in-between our weather recording intervals... More about our weather records

Advertising

Red Deer Weather History for the Previous 24 Hours

Scroll right to see more
 ConditionsComfort  
Time TempWeatherWind HumidityBarometerVisibility
3:00 AM
Fri, Aug 26
46 °FPartly cloudy.No wind100%30.18 "Hg15 mi
2:00 AM50 °FPassing clouds.6 mph94%30.19 "Hg15 mi
1:00 AM50 °FPassing clouds.5 mph94%30.20 "Hg15 mi
12:00 AM50 °FPassing clouds.9 mph94%30.20 "Hg15 mi
11:00 PM
Thu, Aug 25
52 °FPassing clouds.7 mph94%30.22 "Hg15 mi
10:00 PM54 °FPassing clouds.7 mph94%30.23 "Hg15 mi
9:00 PM54 °FPartly sunny.8 mph94%30.22 "Hg15 mi
8:00 PM55 °FPartly sunny.5 mph88%30.22 "Hg15 mi
7:00 PM59 °FPartly sunny.No wind82%30.22 "Hg15 mi
6:47 PM57 °FPartly sunny.3 mph88%30.22 "Hg15 mi
6:00 PM55 °FSprinkles. Broken clouds.5 mph94%30.24 "Hg15 mi
5:00 PM61 °FThunderstorms. Broken clouds.9 mph72%30.22 "Hg15 mi
4:00 PM59 °FSprinkles. Broken clouds.7 mph88%30.23 "Hg15 mi
3:45 PM63 °FSprinkles. Broken clouds.12 mph73%30.22 "Hg15 mi
3:00 PM61 °FSprinkles. Broken clouds.10 mph83%30.24 "Hg15 mi
2:00 PM61 °FPartly sunny.10 mph83%30.25 "Hg15 mi
1:00 PM59 °FScattered showers. Mostly cloudy.13 mph82%30.27 "Hg15 mi
12:53 PM59 °FScattered showers. Mostly cloudy.12 mph82%30.28 "Hg15 mi
12:00 PM63 °FPartly sunny.13 mph73%30.27 "Hg15 mi
11:00 AM59 °FPartly sunny.8 mph82%30.29 "Hg15 mi
10:00 AM57 °FPartly sunny.9 mph88%30.30 "Hg15 mi
9:00 AM55 °FPartly sunny.9 mph88%30.29 "Hg15 mi
8:00 AM52 °FSprinkles. Partly sunny.6 mph94%30.29 "Hg15 mi
7:00 AM52 °FScattered showers. Passing clouds.7 mph100%30.28 "Hg15 mi
6:00 AM52 °FSprinkles. Mostly cloudy.3 mph94%30.28 "Hg15 mi
5:00 AM52 °FSprinkles. Mostly cloudy.5 mph100%30.29 "Hg15 mi
4:00 AM52 °FSprinkles. Overcast.6 mph100%30.29 "Hg15 mi
Weather by CustomWeather, © 2016

See weather overviewHow to use our weather pages